This is the latest recevied weather packets stored in our database for station/object EA3AGY-13. If no packets are shown the sender has not sent any weather packets the latest 10 day(s).
| Time | Temp. | Humidity | Pressure | Rain* | Wind** | Luminosity | Snow |
|---|---|---|---|---|---|---|---|
| 1788254966 | 20° C | 43% | 1022.1 hPa | 0 mm | - | - | - |
| 1788253159 | 19.44° C | 43% | 1022.2 hPa | 0 mm | - | - | - |
| 1788252557 | 19.44° C | 44% | 1022.2 hPa | 0 mm | - | - | - |
| 1788251352 | 18.89° C | 45% | 1022.3 hPa | 0 mm | - | - | - |
| 1788249545 | 18.33° C | 47% | 1021.9 hPa | 0 mm | - | - | - |
| 1788248948 | 17.78° C | 47% | 1021.9 hPa | 0 mm | - | - | - |
| 1788247135 | 16.67° C | 49% | 1021.7 hPa | 0 mm | - | - | - |
| 1788246533 | 16.67° C | 49% | 1021.8 hPa | 0 mm | - | - | - |
| 1788245931 | 16.67° C | 50% | 1021.9 hPa | 0 mm | - | - | - |
| 1788244727 | 15.56° C | 51% | 1021.7 hPa | 0 mm | - | - | - |
| 1788241112 | 13.89° C | 51% | 1021.6 hPa | 0 mm | - | - | - |
| 1788239305 | 13.89° C | 51% | 1021.5 hPa | 0 mm | - | - | - |
| 1788236895 | 13.89° C | 51% | 1021.6 hPa | 0 mm | - | - | - |
| 1788236293 | 13.89° C | 52% | 1021.7 hPa | 0 mm | - | - | - |
| 1788233883 | 13.89° C | 51% | 1022 hPa | 0 mm | - | - | - |
| 1788233281 | 14.44° C | 51% | 1022.1 hPa | 0 mm | - | - | - |
| 1788232679 | 14.44° C | 50% | 1022.2 hPa | 0 mm | - | - | - |
| 1788232076 | 14.44° C | 50% | 1022.2 hPa | 0 mm | - | - | - |
| 1788230873 | 15° C | 52% | 1022.2 hPa | 0 mm | - | - | - |
| 1788229667 | 14.44° C | 49% | 1022.2 hPa | 0 mm | - | - | - |
| 1788229065 | 15° C | 48% | 1022.4 hPa | 0 mm | - | - | - |
| 1788227260 | 14.44° C | 50% | 1022.5 hPa | 0 mm | - | - | - |
| 1788226655 | 15° C | 51% | 1022.4 hPa | 0 mm | - | - | - |
| 1788224247 | 15° C | 52% | 1022.6 hPa | 0 mm | - | - | - |
| 1788223040 | 15° C | 48% | 1022.6 hPa | 0 mm | - | - | - |
* Rain since midnight (hover to see other rain measurements)
** Current wind speed in m/s (hover to see current wind gust speed)